User: anonymous   Login
Location: Espelette
(43.3402°N, 1.4474°W)
Time: 03:39:21
(UTC+00:00)
Language:

Cosmos 1125 Rocket - Orbit

View from above orbital plane
View from above orbital plane
View from above satellite
View from above satellite

Ground track
Ground track

The orbit data is extracted from the following two-line orbital elements,

1 11511U 79078B   25194.46485488  .00000165  00000-0  63092-4 0  9994
2 11511  74.0370 293.3232 0015259 180.6821 179.4315 14.38108992401857
Epoch (UTC): 13 July 2025 11:09:23
Eccentricity: 0.0015259
inclination: 74.0370°
perigee height: 754 km
apogee height: 775 km
right ascension of ascending node: 293.3232°
argument of perigee: 180.6821°
revolutions per day: 14.38108992
mean anomaly at epoch: 179.4315°
orbit number at epoch: 40185

The dashed part of the orbit path shows where the satellite is in the earth's shadow,  

DLR